When you browse on this site, cookies collect data to enhance your experience and personalize the content and advertising you see.
Visit our Privacy Policy to learn more. By continuing to use the site, you agree to this use of cookies and data.
  • In United Kingdom
  • List of Countries
  • For 7 days
  • Water Temperature
  • Satellite Maps
  • Weather Map
  • Weather Widgets
  • user-avatar
    Login

    Hourly Weather Ozod

    Today, 26 June, Wednesday

    Time Temperature Precipitation Wind Pressure Humidity
    00:00 +28°C° 0 mm 3 mps 721 mmHg 29%
    01:00 +27°C° 0 mm 2 mps 721 mmHg 30%
    02:00 +26°C° 0 mm 2 mps 721 mmHg 32%
    03:00 +26°C° 0 mm 2 mps 721 mmHg 32%
    04:00 +26°C° 0 mm 2 mps 720 mmHg 32%
    05:00 +25°C° 0 mm 2 mps 720 mmHg 32%
    06:00 +28°C° 0 mm 2 mps 720 mmHg 29%
    07:00 +30°C° 0 mm 2 mps 721 mmHg 25%
    08:00 +32°C° 0 mm 2 mps 721 mmHg 22%
    09:00 +35°C° 0 mm 2 mps 721 mmHg 19%
    10:00 +36°C° 0 mm 1 mps 720 mmHg 17%
    11:00 +39°C° 0 mm 1 mps 720 mmHg 14%
    12:00 +40°C° 0 mm 1 mps 720 mmHg 13%
    13:00 +41°C° 0 mm 1 mps 720 mmHg 12%
    14:00 +41°C° 0 mm 1 mps 720 mmHg 11%
    15:00 +41°C° 0 mm 1 mps 720 mmHg 11%
    16:00 +41°C° 0 mm 2 mps 719 mmHg 11%
    17:00 +41°C° 0 mm 2 mps 719 mmHg 11%
    18:00 +39°C° 0 mm 2 mps 719 mmHg 14%
    19:00 +36°C° 0 mm 2 mps 719 mmHg 18%
    20:00 +34°C° 0 mm 2 mps 719 mmHg 21%
    21:00 +33°C° 0 mm 3 mps 719 mmHg 25%
    22:00 +30°C° 0 mm 3 mps 719 mmHg 28%
    23:00 +29°C° 0 mm 4 mps 719 mmHg 32%

    Tomorrow, 27 June, Thursday

    Time Temperature Precipitation Wind Pressure Humidity
    00:00 +28°C° 0 mm 3 mps 718 mmHg 33%
    01:00 +28°C° 0 mm 2 mps 718 mmHg 34%
    02:00 +27°C° 0 mm 2 mps 718 mmHg 35%
    03:00 +26°C° 0.2 mm 2 mps 718 mmHg 37%
    04:00 +26°C° 0.2 mm 2 mps 718 mmHg 38%
    05:00 +26°C° 0.2 mm 2 mps 717 mmHg 39%
    06:00 +27°C° 0.2 mm 2 mps 718 mmHg 36%
    07:00 +29°C° 0.2 mm 2 mps 718 mmHg 32%
    08:00 +31°C° 0.2 mm 2 mps 718 mmHg 28%
    09:00 +34°C° 0 mm 2 mps 718 mmHg 25%
    10:00 +35°C° 0 mm 1 mps 718 mmHg 22%
    11:00 +37°C° 0 mm 1 mps 718 mmHg 18%
    12:00 +39°C° 0 mm 2 mps 718 mmHg 17%
    13:00 +40°C° 0 mm 2 mps 718 mmHg 15%
    14:00 +41°C° 0 mm 2 mps 718 mmHg 13%
    15:00 +42°C° 0 mm 3 mps 718 mmHg 12%
    16:00 +42°C° 0 mm 4 mps 718 mmHg 11%
    17:00 +42°C° 0 mm 5 mps 718 mmHg 11%
    18:00 +38°C° 0 mm 4 mps 718 mmHg 15%
    19:00 +35°C° 0 mm 4 mps 718 mmHg 20%
    20:00 +31°C° 0 mm 3 mps 718 mmHg 24%
    21:00 +30°C° 0 mm 3 mps 718 mmHg 28%
    22:00 +29°C° 0 mm 4 mps 718 mmHg 32%
    23:00 +28°C° 0 mm 4 mps 718 mmHg 35%

    Day after tomorrow, 28 June, Friday

    Time Temperature Precipitation Wind Pressure Humidity
    00:00 +28°C° 0 mm 3 mps 718 mmHg 36%
    01:00 +27°C° 0 mm 3 mps 718 mmHg 36%
    02:00 +26°C° 0 mm 3 mps 717 mmHg 37%
    03:00 +26°C° 0 mm 3 mps 717 mmHg 36%
    04:00 +26°C° 0 mm 3 mps 717 mmHg 36%
    05:00 +25°C° 0 mm 2 mps 717 mmHg 36%
    06:00 +28°C° 0 mm 2 mps 717 mmHg 32%
    07:00 +30°C° 0 mm 2 mps 717 mmHg 28%
    08:00 +32°C° 0 mm 2 mps 718 mmHg 24%
    09:00 +35°C° 0 mm 2 mps 717 mmHg 21%
    10:00 +37°C° 0 mm 2 mps 717 mmHg 19%
    11:00 +39°C° 0 mm 2 mps 717 mmHg 16%
    12:00 +40°C° 0 mm 1 mps 717 mmHg 14%
    13:00 +41°C° 0 mm 1 mps 716 mmHg 12%
    14:00 +42°C° 0 mm 1 mps 716 mmHg 10%
    15:00 +42°C° 0 mm 1 mps 716 mmHg 10%
    16:00 +42°C° 0 mm 1 mps 716 mmHg 10%
    17:00 +42°C° 0 mm 2 mps 716 mmHg 9%
    18:00 +39°C° 0 mm 2 mps 716 mmHg 13%
    19:00 +37°C° 0 mm 2 mps 716 mmHg 16%
    20:00 +34°C° 0 mm 2 mps 717 mmHg 19%
    21:00 +32°C° 0 mm 2 mps 717 mmHg 22%
    22:00 +31°C° 0 mm 2 mps 717 mmHg 24%
    23:00 +29°C° 0 mm 2 mps 717 mmHg 27%

    29 June, Saturday

    Time Temperature Precipitation Wind Pressure Humidity
    00:00 +29°C° 0 mm 2 mps 717 mmHg 27%
    01:00 +29°C° 0 mm 3 mps 717 mmHg 28%
    02:00 +28°C° 0 mm 3 mps 717 mmHg 28%
    03:00 +28°C° 0 mm 3 mps 717 mmHg 28%
    04:00 +27°C° 0 mm 3 mps 717 mmHg 29%
    05:00 +27°C° 0 mm 3 mps 717 mmHg 29%
    06:00 +29°C° 0 mm 3 mps 717 mmHg 27%
    07:00 +31°C° 0 mm 3 mps 717 mmHg 25%
    08:00 +34°C° 0 mm 2 mps 717 mmHg 23%
    09:00 +35°C° 0 mm 2 mps 717 mmHg 21%
    10:00 +37°C° 0 mm 2 mps 717 mmHg 19%
    11:00 +39°C° 0 mm 2 mps 717 mmHg 17%
    12:00 +40°C° 0 mm 2 mps 717 mmHg 15%
    13:00 +41°C° 0 mm 1 mps 717 mmHg 13%
    14:00 +42°C° 0 mm 1 mps 716 mmHg 12%
    15:00 +42°C° 0 mm 1 mps 717 mmHg 11%
    16:00 +42°C° 0 mm 1 mps 717 mmHg 11%
    17:00 +42°C° 0 mm 2 mps 717 mmHg 11%
    18:00 +39°C° 0 mm 2 mps 718 mmHg 15%
    19:00 +37°C° 0 mm 2 mps 718 mmHg 19%
    20:00 +34°C° 0 mm 3 mps 718 mmHg 23%
    21:00 +33°C° 0 mm 3 mps 718 mmHg 26%
    22:00 +30°C° 0 mm 2 mps 718 mmHg 29%
    23:00 +29°C° 0 mm 2 mps 718 mmHg 32%

    30 June, Sunday

    Time Temperature Precipitation Wind Pressure Humidity
    00:00 +28°C° 0 mm 2 mps 717 mmHg 33%
    01:00 +28°C° 0 mm 2 mps 717 mmHg 34%
    02:00 +28°C° 0 mm 2 mps 717 mmHg 34%
    03:00 +27°C° 0 mm 2 mps 717 mmHg 35%
    04:00 +27°C° 0 mm 2 mps 717 mmHg 35%
    05:00 +26°C° 0 mm 2 mps 717 mmHg 36%
    06:00 +29°C° 0 mm 2 mps 717 mmHg 32%
    07:00 +31°C° 0 mm 2 mps 717 mmHg 28%
    08:00 +35°C° 0 mm 2 mps 717 mmHg 24%
    09:00 +37°C° 0 mm 2 mps 717 mmHg 21%
    10:00 +37°C° 0 mm 1 mps 717 mmHg 19%
    11:00 +40°C° 0 mm 1 mps 717 mmHg 16%
    12:00 +41°C° 0 mm 1 mps 717 mmHg 15%
    13:00 +42°C° 0 mm 1 mps 717 mmHg 13%
    14:00 +44°C° 0 mm 1 mps 717 mmHg 11%
    15:00 +43°C° 0 mm 2 mps 717 mmHg 11%
    16:00 +44°C° 0 mm 3 mps 717 mmHg 10%
    17:00 +44°C° 0 mm 4 mps 717 mmHg 10%
    18:00 +41°C° 0 mm 4 mps 717 mmHg 15%
    19:00 +37°C° 0 mm 4 mps 717 mmHg 20%
    20:00 +34°C° 0 mm 4 mps 717 mmHg 24%
    21:00 +33°C° 0 mm 4 mps 717 mmHg 26%
    22:00 +31°C° 0 mm 3 mps 717 mmHg 28%
    23:00 +30°C° 0 mm 3 mps 717 mmHg 30%

    1 July, Monday

    Time Temperature Precipitation Wind Pressure Humidity
    00:00 +30°C° 0 mm 3 mps 717 mmHg 30%
    01:00 +29°C° 0 mm 3 mps 717 mmHg 31%
    02:00 +28°C° 0 mm 2 mps 717 mmHg 31%
    03:00 +28°C° 0 mm 2 mps 717 mmHg 31%
    04:00 +28°C° 0 mm 2 mps 717 mmHg 32%
    05:00 +27°C° 0 mm 2 mps 717 mmHg 32%
    06:00 +30°C° 0 mm 2 mps 717 mmHg 28%
    07:00 +32°C° 0 mm 2 mps 717 mmHg 25%
    08:00 +35°C° 0 mm 2 mps 718 mmHg 22%
    09:00 +38°C° 0 mm 2 mps 718 mmHg 19%
    10:00 +40°C° 0 mm 1 mps 718 mmHg 17%
    11:00 +42°C° 0 mm 1 mps 718 mmHg 14%
    12:00 +43°C° 0 mm 2 mps 718 mmHg 13%
    13:00 +45°C° 0 mm 2 mps 718 mmHg 11%
    14:00 +46°C° 0 mm 3 mps 717 mmHg 10%
    15:00 +46°C° 0 mm 3 mps 717 mmHg 10%
    16:00 +46°C° 0 mm 3 mps 717 mmHg 9%
    17:00 +47°C° 0 mm 4 mps 717 mmHg 9%
    18:00 +43°C° 0 mm 3 mps 718 mmHg 13%
    19:00 +39°C° 0 mm 3 mps 718 mmHg 16%
    20:00 +37°C° 0 mm 3 mps 718 mmHg 20%
    21:00 +35°C° 0 mm 3 mps 718 mmHg 22%
    22:00 +34°C° 0 mm 2 mps 718 mmHg 24%
    23:00 +32°C° 0 mm 2 mps 718 mmHg 26%
    Show more